Date String (YYYY-MM-DD hh:mm:ss) UTC,Instrument flags,absolute air pressure of the measurement (hPa),sample flow rate (lpm),inlet stack bypass flow (lpm),air temperature of the measurement (°C),ambient temperature measured by the external sensor (°C),aerosol sample conditioner tube jacket temperature (°C),OPC LED temperature (°C),internal box temperature (°C),relative humidity of the measurement (%),span deviation,mass concentration of particles derived from Lorenz-Mie calculation of OPC scattering (μg/m³),mass concentration of particles derived from Lorenz-Mie calculation of OPC scattering (μg/m³),mass concentration of particles derived from Lorenz-Mie calculation of OPC scattering (μg/m³)
DateTimeUTC,F1_M11,P_M11,Q1_M11,Q2_M11,T1_M11,T2_M11,T3_M11,T4_M11,T5_M11,U1_M11,ZSPAN_M11,X0_M11,X2_M11,X1_M11
2024-05-14 17:00:00,SystemResetWarning,0824.7,5.01,000.00,024.7,024.1,000.0,032.7,026.6,018.8,0000.0,0007.76,0003.21,0002.48
2024-05-14 17:01:00,SystemResetWarning,0824.7,5.00,000.00,024.8,024.3,000.0,032.7,026.7,019.1,0000.0,0008.14,0003.19,0002.48
2024-05-14 17:02:00,SystemResetWarning,0824.7,5.00,000.00,024.9,024.4,000.0,032.8,026.7,019.7,0000.0,0008.19,0003.20,0002.49
2024-05-14 17:03:00,SystemResetWarning,0824.7,4.99,000.00,024.9,023.9,000.0,032.9,026.5,019.4,0000.0,0008.16,0003.21,0002.49
2024-05-14 17:04:00,SystemResetWarning,0824.6,5.00,000.00,024.6,022.0,000.0,032.9,025.5,019.9,0000.0,0008.16,0003.22,0002.50
2024-05-14 17:05:00,SystemResetWarning,0824.6,5.02,000.00,024.3,021.5,000.0,032.9,025.2,018.9,0000.0,0008.11,0003.22,0002.52
2024-05-14 17:06:00,SystemResetWarning,0824.6,4.99,000.00,024.2,022.0,000.0,032.9,025.4,018.7,0000.0,0007.40,0003.23,0002.54
2024-05-14 17:07:00,SystemResetWarning,0824.7,4.99,000.00,024.2,022.4,000.0,032.7,025.6,019.2,0000.0,0007.17,0003.26,0002.56
2024-05-14 17:08:00,SystemResetWarning,0824.7,5.01,000.00,024.3,022.7,000.0,032.7,025.8,019.2,0000.0,0006.99,0003.27,0002.58
2024-05-14 17:09:00,SystemResetWarning,0824.6,4.99,000.00,024.3,023.0,000.0,032.6,026.0,018.6,0000.0,0006.69,0003.28,0002.61
2024-05-14 17:10:00,SystemResetWarning,0824.6,4.99,000.00,024.4,023.3,000.0,032.6,026.2,019.3,0000.0,0006.10,0003.27,0002.62
2024-05-14 17:11:00,SystemResetWarning,0824.6,4.99,000.00,024.5,023.5,000.0,032.6,026.3,019.4,0000.0,0006.01,0003.26,0002.64
2024-05-14 17:12:00,SystemResetWarning,0824.5,5.00,000.00,024.5,023.7,000.0,032.6,026.4,018.3,0000.0,0005.16,0003.26,0002.66
2024-05-14 17:13:00,SystemResetWarning,0824.6,5.00,000.00,024.6,023.9,000.0,032.6,026.5,017.9,0000.0,0004.99,0003.27,0002.66
2024-05-14 17:14:00,SystemResetWarning,0824.7,5.01,000.00,024.7,024.1,000.0,032.7,026.6,018.8,0000.0,0005.05,0003.29,0002.66
2024-05-14 17:15:00,SystemResetWarning,0824.7,5.00,000.00,024.8,024.2,000.0,032.7,026.7,019.5,0000.0,0005.24,0003.27,0002.65
2024-05-14 17:16:00,SystemResetWarning,0824.5,5.01,000.00,024.8,024.2,000.0,032.7,026.6,019.6,0000.0,0005.50,0003.26,0002.63
2024-05-14 17:17:00,SystemResetWarning,0824.5,4.98,000.00,024.7,022.7,000.0,032.8,025.9,020.4,0000.0,0005.54,0003.25,0002.62
2024-05-14 17:18:00,SystemResetWarning,0824.4,5.01,000.00,024.3,021.6,000.0,032.9,025.2,020.7,0000.0,0005.44,0003.25,0002.63
2024-05-14 17:19:00,SystemResetWarning,0824.4,5.01,000.00,024.2,022.0,000.0,032.8,025.4,019.9,0000.0,0005.52,0003.27,0002.63
2024-05-14 17:20:00,SystemResetWarning,0824.4,4.99,000.00,024.2,022.4,000.0,032.7,025.5,018.8,0000.0,0005.69,0003.27,0002.62
2024-05-14 17:21:00,SystemResetWarning,0824.4,5.00,000.00,024.3,022.7,000.0,032.6,025.7,020.0,0000.0,0005.61,0003.26,0002.62
2024-05-14 17:22:00,SystemResetWarning,0824.5,5.00,000.00,024.3,023.0,000.0,032.6,026.0,018.9,0000.0,0005.76,0003.27,0002.61
2024-05-14 17:23:00,SystemResetWarning,0824.4,5.00,000.00,024.4,023.3,000.0,032.6,026.1,019.1,0000.0,0005.98,0003.29,0002.60
2024-05-14 17:24:00,SystemResetWarning,0824.4,5.00,000.00,024.4,023.5,000.0,032.6,026.2,019.0,0000.0,0005.92,0003.27,0002.60
2024-05-14 17:25:00,SystemResetWarning,0824.5,5.00,000.00,024.5,023.7,000.0,032.6,026.4,018.5,0000.0,0005.92,0003.26,0002.61
2024-05-14 17:26:00,SystemResetWarning,0824.5,4.99,000.00,024.6,023.9,000.0,032.6,026.5,019.0,0000.0,0005.94,0003.31,0002.64
2024-05-14 17:27:00,SystemResetWarning,0824.4,5.00,000.00,024.7,024.1,000.0,032.6,026.6,018.6,0000.0,0005.67,0003.33,0002.64
2024-05-14 17:28:00,SystemResetWarning,0824.5,5.00,000.00,024.8,024.2,000.0,032.7,026.6,018.1,0000.0,0005.73,0003.33,0002.65
2024-05-14 17:29:00,SystemResetWarning,0824.5,5.00,000.00,024.8,024.3,000.0,032.7,026.7,018.7,0000.0,0006.10,0003.33,0002.64
2024-05-14 17:30:00,SystemResetWarning,0824.4,4.98,000.00,024.8,023.4,000.0,032.8,026.1,018.2,0000.0,0006.04,0003.29,0002.64
2024-05-14 17:31:00,SystemResetWarning,0824.4,5.02,000.00,024.4,021.8,000.0,032.9,025.2,018.4,0000.0,0005.81,0003.28,0002.64
2024-05-14 17:32:00,SystemResetWarning,0824.3,5.01,000.00,024.2,021.9,000.0,032.9,025.2,018.9,0000.0,0006.13,0003.29,0002.64
2024-05-14 17:33:00,SystemResetWarning,0824.4,4.98,000.00,024.2,022.3,000.0,032.8,025.5,019.7,0000.0,0006.87,0003.29,0002.65
2024-05-14 17:34:00,SystemResetWarning,0824.4,5.01,000.00,024.2,022.6,000.0,032.7,025.7,019.9,0000.0,0006.64,0003.26,0002.64
2024-05-14 17:35:00,SystemResetWarning,0824.4,5.01,000.00,024.3,023.0,000.0,032.6,025.9,018.9,0000.0,0006.78,0003.28,0002.63
2024-05-14 17:36:00,SystemResetWarning,0824.4,4.99,000.00,024.4,023.2,000.0,032.6,026.1,019.2,0000.0,0006.86,0003.28,0002.61
2024-05-14 17:37:00,SystemResetWarning,0824.4,4.99,000.00,024.4,023.5,000.0,032.6,026.2,017.6,0000.0,0006.87,0003.27,0002.58
2024-05-14 17:38:00,SystemResetWarning,0824.4,5.00,000.00,024.5,023.7,000.0,032.6,026.3,017.4,0000.0,0007.17,0003.29,0002.58
2024-05-14 17:39:00,SystemResetWarning,0824.3,5.01,000.00,024.6,023.9,000.0,032.6,026.4,018.2,0000.0,0007.56,0003.31,0002.60
2024-05-14 17:40:00,SystemResetWarning,0824.4,5.00,000.00,024.6,024.0,000.0,032.6,026.5,017.6,0000.0,0007.40,0003.31,0002.60
2024-05-14 17:41:00,SystemResetWarning,0824.3,5.00,000.00,024.7,024.2,000.0,032.7,026.6,017.4,0000.0,0007.35,0003.32,0002.60
2024-05-14 17:42:00,SystemResetWarning,0824.3,5.00,000.00,024.8,024.2,000.0,032.7,026.6,016.3,0000.0,0007.65,0003.32,0002.58
2024-05-14 17:43:00,SystemResetWarning,0824.3,4.98,000.00,024.6,022.9,000.0,032.8,025.9,016.8,0000.0,0007.89,0003.33,0002.59
2024-05-14 17:44:00,SystemResetWarning,0824.3,5.01,000.00,024.3,021.5,000.0,032.8,025.2,017.1,0000.0,0007.76,0003.34,0002.60
2024-05-14 17:45:00,SystemResetWarning,0824.2,5.00,000.00,024.2,021.9,000.0,032.8,025.3,017.8,0000.0,0007.87,0003.35,0002.59
2024-05-14 17:46:00,SystemResetWarning,0824.2,4.98,000.00,024.2,022.3,000.0,032.7,025.5,017.9,0000.0,0008.14,0003.35,0002.60
2024-05-14 17:47:00,SystemResetWarning,0824.2,5.00,000.00,024.2,022.6,000.0,032.6,025.7,017.0,0000.0,0008.29,0003.35,0002.62
2024-05-14 17:48:00,SystemResetWarning,0824.3,5.01,000.00,024.2,023.0,000.0,032.6,025.9,016.5,0000.0,0008.27,0003.36,0002.63
2024-05-14 17:49:00,SystemResetWarning,0824.3,5.00,000.00,024.3,023.2,000.0,032.6,026.1,016.5,0000.0,0008.12,0003.34,0002.62
2024-05-14 17:50:00,SystemResetWarning,0824.3,4.99,000.00,024.4,023.5,000.0,032.6,026.2,015.5,0000.0,0007.80,0003.35,0002.61
2024-05-14 17:51:00,SystemResetWarning,0824.3,4.99,000.00,024.4,023.7,000.0,032.6,026.3,015.0,0000.0,0008.21,0003.36,0002.62
2024-05-14 17:52:00,SystemResetWarning,0824.3,5.00,000.00,024.5,023.9,000.0,032.6,026.4,015.2,0000.0,0009.21,0003.40,0002.64
2024-05-14 17:53:00,SystemResetWarning,0824.3,5.00,000.00,024.6,024.1,000.0,032.6,026.5,016.0,0000.0,0009.16,0003.47,0002.66
2024-05-14 17:54:00,SystemResetWarning,0824.3,4.99,000.00,024.6,023.1,000.0,032.7,026.0,016.0,0000.0,0009.03,0003.49,0002.65
2024-05-14 17:55:00,SystemResetWarning,0824.2,5.00,000.00,024.2,021.3,000.0,032.7,025.1,015.7,0000.0,0008.93,0003.49,0002.65
2024-05-14 17:56:00,SystemResetWarning,0824.2,5.02,000.00,024.0,021.5,000.0,032.7,025.0,016.4,0000.0,0008.98,0003.51,0002.66
2024-05-14 17:57:00,SystemResetWarning,0824.2,4.99,000.00,024.0,022.0,000.0,032.6,025.3,016.9,0000.0,0008.76,0003.55,0002.67
2024-05-14 17:58:00,SystemResetWarning,0824.2,4.99,000.00,024.0,022.3,000.0,032.5,025.5,016.5,0000.0,0008.64,0003.57,0002.68
2024-05-14 17:59:00,SystemResetWarning,0824.1,5.01,000.00,024.1,022.7,000.0,032.5,025.7,016.5,0000.0,0008.63,0003.56,0002.68
